Regional Weather Roundup
Issued by NWS

Home | Current Version | Previous Version | Graphics & Text | Print | Product List | Glossary On
Versions: 1 2 3 4 5 6 7 8 9 10 11 12 13 14 15 16 17 18 19 20 21 22 23 24 25 26 27 28 29 30 31 32 33 34 35 36 37 38 39 40 41 42 43 44 45 46 47 48 49 50
000
ASUS43 KLOT 281100
RWRIL

ILLINOIS REGIONAL WEATHER ROUNDUP
NATIONAL WEATHER SERVICE CHICAGO/ROMEOVILLE IL
600 AM CDT THU MAY 28 2015

NOTE: "FAIR" INDICATES FEW OR NO CLOUDS BELOW 12,000 FEET WITH NO
SIGNIFICANT WEATHER AND/OR OBSTRUCTIONS TO VISIBILITY.

* THESE STATIONS ARE NOT UNDER NWS QUALITY CONTROL. THEY ALSO MAY NOT
  REPORT WEATHER SUCH AS PRECIPITATION OR FOG.

ILZ001-002-007-009-015-016-024-281200-
NORTHWEST ILLINOIS

CITY           SKY/WX    TMP DP  RH WIND       PRES   REMARKS
MOLINE         CLEAR     55  53  93 CALM      30.14F
STERLING*      CLEAR     57  54  88 SE3       30.17F
$$

ILZ003-004-008-010-011-017-018-281200-
NORTH CENTRAL ILLINOIS

CITY           SKY/WX    TMP DP  RH WIND       PRES   REMARKS
ROCKFORD       PTCLDY    57  53  86 SE5       30.19R
$$

ILZ005-006-012>014-019>023-281200-
NORTHEAST ILLINOIS

CITY           SKY/WX    TMP DP  RH WIND       PRES   REMARKS
CHICAGO-OHARE  PTCLDY    57  54  89 CALM      30.18R
CHICAGO-MIDWAY PTCLDY    61  56  83 S5        30.18R
AURORA         CLEAR     53  50  89 CALM      30.20R
WAUKEGAN       NOT AVBL
DUPAGE AIRPORT CLEAR     53  52  96 S3        30.19R
WHEELING       CLEAR     53  51  93 SE3       30.19R
NORTHERLY ISL    N/A     63  55  75 S3          N/A
$$

LMZ740>746-281200-
SOUTHERN LAKE MICHIGAN

STATION/POSITION SKY/WX   TEMP    WIND        PRES    VSBY  WAVE
                          AIR SEA DIR/SP/G                  HT/PER
                          (F)     (DEG/KT/KT) (MB)    (MI)  (FT/S)
SOUTHERN BUOY              46 38  210/  6/  8 1022.5R         0
HARRISON CRIB              62     180/  9/ 10   N/A
BURNHAM HARBOR             59      CALM  /  4   N/A
CALUMET HARBOR             60     210/  2/  2   N/A
BURNS HARBOR               58     130/  3/  6 1022.4R
MICHIGAN CITY              58     110/  9/ 10   N/A
MICHIGAN CITY 6N           55 53  150/  2/  4   N/A           0
ST. JOSEPH                 57 56  140/  4/  6   N/A           0
$$

ILZ025>027-034>036-040-047-049-050-058-095>099-281200-
WEST-CENTRAL ILLINOIS

CITY           SKY/WX    TMP DP  RH WIND       PRES   REMARKS
QUINCY         CLEAR     61  55  81 SE6       30.15R
$$

ILZ028>032-037-038-041>044-048-051>054-059>061-281200-
CENTRAL ILLINOIS

CITY           SKY/WX    TMP DP  RH WIND       PRES   REMARKS
DECATUR        PTCLDY    57  52  83 E5        30.19R
PEORIA         CLEAR     60  56  86 CALM      30.17R
SPRINGFIELD    CLEAR     59  54  83 CALM      30.17R
TAYLORVILLE    NOT AVBL
$$

ILZ033-039-045-046-055>057-062-063-281200-
EAST-CENTRAL ILLINOIS

CITY           SKY/WX    TMP DP  RH WIND       PRES   REMARKS
CHAMPAIGN      PTCLDY    58  54  86 E6        30.18R
$$

ILZ079-100>102-281200-
SOUTHWEST ILLINOIS

CITY           SKY/WX    TMP DP  RH WIND       PRES   REMARKS
BELLEVILLE     PTCLDY    62  62  99 CALM      30.14R
CAHOKIA*       PTCLDY    61  58  90 CALM      30.14R FOG
$$

ILZ064>066-069>071-074>076-080>082-084>086-088>090-092>094-281200-
SOUTH-CENTRAL ILLINOIS

CITY           SKY/WX    TMP DP  RH WIND       PRES   REMARKS
CARBONDALE     PTCLDY    66  65  96 SE3       30.14R
MT. VERNON     MOCLDY    63  57  82 CALM      30.16R
$$

ILZ067-068-072-073-078-083-087-091-281200-
SOUTHEAST ILLINOIS

CITY           SKY/WX    TMP DP  RH WIND       PRES   REMARKS
LAWRENCEVILLE  FOG       61  60  97 NE3       30.17R VSB<1/4
$$

ABBREVIATIONS USED IN REMARKS
   TC - TEMPERATURE IN CELSIUS
  WCI - WIND CHILL INDEX
   HX - HEAT INDEX
  VSB - VISIBILITY
$$




USA.gov is the U.S. government's official web portal to all federal, state and local government web resources and services.